Flag for Germany Weather past 2 weeks in Aalen, Baden-Württemberg, Germany

Now
29 °F

Fog.


Feels Like: 25 °F
Forecast: 33 / 41 °F
Wind: 3 mph from South

Location: Stoetten

Current Time: Mar 1, 2015 at 4:54:13 AM

Latest Report: Mar 1, 2015 at 4:00 AM


Visibility: 3 mi

Pressure: 29.96 "Hg

Humidity: 93%

Dew point: 27 °F

Location of AalenLocation

Historic Weather in Aalen — Graph

°F

Aalen temperature yesterday

Maximum temperature yesterday: 38 °F (at 4:00 PM)
Minimum temperature yesterday: 29 °F (at 11:00 PM)
Average temperature yesterday: 32 °F

Past Weeks' High & Low Weather Summary

 TemperatureHumidityPressure
High45 °F (Feb 20, 3:00 PM)100% (Feb 15, 3:00 PM)30.79 "Hg (Feb 15, 3:00 PM)
Low19 °F (Feb 17, 4:00 AM)36% (Feb 21, 1:00 AM)29.54 "Hg (Feb 21, 1:00 PM)
Average30 °F88%30.08 "Hg
* Reported Feb 14 4:00 AM — Mar 1 4:00 AM, Aalen, Weather by CustomWeather, © 2015

Note: Actual official high and low records may vary slightly from our data, if they occured in-between our weather recording intervals... More about our weather records

Advertising

Aalen weather history for previous 24 hours

 ConditionsComfort  
Time TempWeatherWind HumidityBarometerVisibility
4:00 AM
Sun, Mar 1
29 °FFog.3 mph93%29.96 "Hg3 mi
3:00 AM29 °FFog.5 mph96%30.00 "Hg2 mi
2:00 AM29 °FFog.6 mph93%30.01 "Hg3 mi
1:00 AM30 °FFog.5 mph92%30.03 "Hg3 mi
12:00 AM29 °FFog.3 mph92%30.06 "Hg4 mi
11:00 PM
Sat, Feb 28
29 °FFog.5 mph94%30.09 "Hg3 mi
10:00 PM29 °FFog.3 mph92%30.11 "Hg4 mi
9:00 PM30 °FClear.3 mph90%30.12 "Hg16 mi
8:00 PM31 °FClear.3 mph89%30.13 "Hg19 mi
7:00 PM32 °FPassing clouds.3 mph87%30.13 "Hg17 mi
6:00 PM34 °FScattered clouds.2 mph81%30.12 "Hg28 mi
5:00 PM35 °FPartly sunny.2 mph76%30.11 "Hg34 mi
4:00 PM38 °FPartly sunny.2 mph65%30.11 "Hg37 mi
3:00 PM37 °FPartly sunny.2 mph68%30.13 "Hg40 mi
2:00 PM36 °FPartly sunny.2 mph70%30.14 "Hg37 mi
1:00 PM33 °FScattered clouds.2 mph76%30.19 "Hg34 mi
12:00 PM31 °FScattered clouds.1 mph84%30.22 "Hg7 mi
11:00 AM31 °FFog.2 mph95%30.22 "Hg3 mi
10:00 AM31 °FFog.2 mph98%30.22 "Hg1 mi
9:00 AM30 °FSnow flurries. Ice fog.2 mph100%30.23 "Hg0 mi
8:00 AM30 °FSnow flurries. Ice fog.3 mph100%30.22 "Hg0 mi
7:00 AM30 °FFog.3 mph100%30.21 "Hg0 mi
6:00 AM30 °FFog.3 mph100%30.20 "Hg0 mi
5:00 AM30 °FLow clouds.3 mph100%30.19 "Hg0 mi
4:00 AM30 °FFreezing rain. Low clouds.5 mph100%30.18 "Hg0 mi
Weather by CustomWeather, © 2015

See weather overviewHow to use our weather pages